Tracking 22779 objects as of 13-Apr-2021
HD Live streaming from Space Station
objects crossing your sky now

STARLINK-1299

Track STARLINK-1299 now!
10-day predictions
STARLINK-1299 is classified as:


NORAD ID: 45418
Int'l Code: 2020-019BL
Perigee: 572.1 km
Apogee: 574.6 km
Inclination: 53.0 °
Period: 96.0 minutes
Semi major axis: 6944 km
RCS: Unknown
Launch date: March 18, 2020
Source: United States (US)
Launch site: AIR FORCE EASTERN TEST RANGE (AFETR)
aabbcc
Your satellite tracking list
Your tracking list is empty




NASA's NSSDC Master Catalog

Two Line Element Set (TLE):
1 45418U 20019BL  21102.96957286  .00002171  00000-0  19268-3 0  9992
2 45418  53.0011 300.6686 0001796  93.2293 266.8898 15.00227907 59255
Source of the keplerian elements: AFSPC